Regional Weather Roundup
Issued by NWS

Home | Current Version | Previous Version | Text Only | Print | Product List | Glossary Off
Versions: 1 2 3 4 5 6 7 8 9 10 11 12 13 14 15 16 17 18 19 20 21 22 23 24 25 26 27 28 29 30 31 32 33 34 35 36 37 38 39 40 41 42 43 44 45 46 47 48 49 50

056
ASUS43 KMKX 220421
RWRWI

WISCONSIN REGIONAL WEATHER ROUNDUP
NATIONAL WEATHER SERVICE MILWAUKEE/SULLIVAN WI
1000 PM CST TUE NOV 21 2017

NOTE: "FAIR" INDICATES FEW OR NO CLOUDS BELOW 12,000 FEET WITH NO
SIGNIFICANT WEATHER AND/OR OBSTRUCTIONS TO VISIBILITY.

WIZ001-002-006>008-014>016-023>028-220500-
NORTHWEST WISCONSIN

CITY           SKY/WX    TMP DP  RH WIND       PRES   REMARKS
SUPERIOR ARPT  CLOUDY    18  10  69 W5        30.29R WCI  11
ASHLAND        CLOUDY    19  10  68 W10       30.24S WCI   7
HAYWARD        CLOUDY    17   7  64 NW6       30.24R WCI   9
SIREN          CLEAR     15   7  71 NW3       30.28S
CUMBERLAND     CLEAR     16   7  67 NW12      30.25R WCI   3
RICE LAKE      MOCLDY    18  10  71 NW6       30.27R WCI  10
CHETEK         PTCLDY    19  10  69 N9G16     30.25R WCI   7
LADYSMITH      CLOUDY    19  11  70 NW13      30.23S WCI   6
EAU CLAIRE     CLEAR     21  10  62 N10       30.24R WCI  10
MENOMONIE      CLEAR     21  10  62 NW15      30.26R WCI   7
NEW RICHMOND   CLEAR     19   9  65 N15       30.28R WCI   4
OSCEOLA        CLEAR     19  10  67 N8        30.32R WCI   9
$$

WIZ003>005-009-010-017-018-220500-
NORTH CENTRAL WISCONSIN

CITY           SKY/WX    TMP DP  RH WIND       PRES   REMARKS
MANITOWISH WTR FLURRIES  17  13  83 NW8       30.14R WCI   7
ARBOR VITAE    FLURRIES  19  13  77 NW9G18    30.14R WCI   8
WOODRUFF       FLURRIES  19  13  77 NW9G18    30.14R WCI   8
RHINELANDER    FLURRIES  19  14  81 NW5       30.14R WCI  12
EAGLE RIVER    FLURRIES  19  13  76 NW9       30.12R WCI   8
LAND O LAKES   FLURRIES  20  15  79 NW9G17    30.12R WCI   9
PHILLIPS       FLURRIES  17  10  73 NW6       30.18R WCI   8
TOMAHAWK       CLOUDY    19  10  68 NW7       30.17R WCI  10
MEDFORD        CLEAR     17   9  70 N12       30.17R WCI   5
MERRILL        CLOUDY    21  11  64 N10G17    30.17S WCI  10
$$

WIZ029-030-035-036-043>047-220500-
CENTRAL WISCONSIN

CITY           SKY/WX    TMP DP  RH WIND       PRES   REMARKS
WAUSAU         MOCLDY    20  10  65 NW9       30.16R WCI   9
MOSINEE        CLEAR     18  12  79 NW9       30.18R WCI   6
MARSHFIELD     CLEAR     18   9  68 NW6       30.18R WCI  10
STEVENS POINT  CLEAR     19   9  64 CALM      30.19R
WAUPACA        PTCLDY    23  13  65 CALM      30.20R
WAUTOMA        PTCLDY    20  12  71 NW6       30.21R WCI  12
WISC RAPIDS    CLEAR     19  11  70 NW6       30.21R WCI  11
CAMP DOUGLAS   CLEAR     16  10  79 W8        30.22R WCI   5
$$

WIZ011>013-019>022-031-037>040-048>050-220500-
NORTHEAST WISCONSIN

CITY           SKY/WX    TMP DP  RH WIND       PRES   REMARKS
ANTIGO         CLOUDY    20  11  68 NW12G17   30.14R WCI   8
SHAWANO        PTCLDY    23  12  62 CALM      30.18R
OCONTO         CLOUDY    25  11  56 NW6       30.18R WCI  18
STURGEON BAY   FLURRIES  25  14  63 NW14G21   30.16R WCI  13
GREEN BAY      CLOUDY    25  13  60 NW13G21   30.18R WCI  14
MANITOWOC      CLOUDY    25  15  66 N13       30.18R WCI  14
APPLETON       PTCLDY    19   9  63 NW6       30.17R WCI  11
CLINTONVILLE   CLEAR     21  10  63 NW3       30.19R
OSHKOSH        CLEAR     23  12  62 NW10      30.19R WCI  12
$$

WIZ032>034-041-042-053>061-220500-
SOUTHWEST WISCONSIN

CITY           SKY/WX    TMP DP  RH WIND       PRES   REMARKS
LA CROSSE      CLEAR     26  12  55 NW10G20   30.26R WCI  16
SPARTA         CLEAR     22  12  65 W6        30.25S WCI  15
VIROQUA        CLEAR     21  16  80 W6        30.22S WCI  13
BOSCOBEL       CLEAR     25  13  60 CALM      30.27R
PRAIRIE DU CHI CLEAR     24  12  61 NW7       30.28R WCI  16
PLATTEVILLE    CLEAR     22  17  79 W5        30.25R WCI  16
$$

WIZ056-057-062-063-064-067-068-220500-
SOUTH CENTRAL WISCONSIN

CITY           SKY/WX    TMP DP  RH WIND       PRES   REMARKS
REEDSBURG      CLEAR     22  13  68 CALM      30.23R
BARABOO/DELLS  CLEAR     22  13  66 NW5       30.21R WCI  16
LONE ROCK      CLEAR     23  14  68 W6        30.26R WCI  16
MINERAL POINT  CLEAR     23  18  80 W6        30.22R WCI  16
MADISON        CLEAR     23  13  65 NW5       30.21R WCI  17
MIDDLETON      CLEAR     25  16  69 NW7       30.22R WCI  17
WATERTOWN      CLEAR     22  16  75 CALM      30.20R
MONROE         CLEAR     23  14  68 NW8       30.21R WCI  14
JANESVILLE     CLEAR     21  16  79 NW5       30.21R WCI  15
$$

WIZ051-052-058>065-066-070>072-220500-
SOUTHEAST WISCONSIN

CITY           SKY/WX    TMP DP  RH WIND       PRES   REMARKS
MILWAUKEE      MOCLDY    29  15  56 NW10      30.18R WCI  20
WAUKESHA       CLEAR     23  14  68 NW9       30.19R WCI  13
MILWAUKEE/TIMM CLOUDY    27  12  54 NW10      30.19R WCI  17
RACINE         CLOUDY    28  14  55 NW9       30.19R WCI  19
BURLINGTON     CLEAR     26  19  76 NW10      30.19R WCI  16
KENOSHA        PTCLDY    27  14  58 NW8       30.18R WCI  19
FOND DU LAC    CLEAR     22  11  62 NW7       30.20R WCI  13
SHEBOYGAN      MOCLDY    24  14  65 N7        30.17R WCI  16
WEST BEND      PTCLDY    25  12  58 NW10      30.18R WCI  15
JUNEAU         CLEAR     22  14  71 CALM      30.21R
$$

LSZ147-162-220500-
LAKE SUPERIOR

STATION/POSITION TIME  TEMP    WIND        PRES    WAVE
                       AIR SEA DIR/SP/G            HT/PER
                 (UTC) (F)     (DEG/KT/KT) (MB)    (FT/S)
DEVILS ISLAND    0400   23     290/ 19/ 23 1024.4R
SAXON HARBOR     0330   24     310/ 15/ 23 1023.0S
$$

LMZ867-665-643>646-220500-
LAKE MICHIGAN

STATION/POSITION TIME  TEMP    WIND        PRES    WAVE
                       AIR SEA DIR/SP/G            HT/PER
                 (UTC) (F)     (DEG/KT/KT) (MB)    (FT/S)
N MID LAKE BUOY  0350   29 47  300/ 21/ 25 1020.1R   5/ 5
NORTHPORT PIER   0347   27     310/ 17     1020.0R
KEWAUNEE LAKESHO 0400   26     310/  7/ 10 1021.0
SHEBOYGAN LAKESH 0400   26     330/ 13/ 16 1022.6R
PORT WASHINGTON  0330   29     320/  7/ 14 1022.7R
MILWAUKEE LAKESH 0400   29     300/ 12/ 15   N/A
S MID LAKE BUOY  0350   34 47  350/ 17/ 23 1021.1R   6/ 6
KENOSHA   LAKESH 0400   27     320/  9/ 12 1022.0
$$

TC  - TEMPERATURE IN CELSIUS
VSB - VISIBILITY IN STATUTE MILES
WCI - WIND CHILL INDEX
HX  - HEAT INDEX





USA.gov is the U.S. government's official web portal to all federal, state and local government web resources and services.